Regional Weather Roundup
Issued by NWS

Home | Current Version | Previous Version | Graphics & Text | Print | Product List | Glossary On
Versions: 1 2 3 4 5 6 7 8 9 10 11 12 13 14 15 16 17 18 19 20 21 22 23 24 25 26 27
000
ASUS45 KPSR 161910
RWRAZ

ARIZONA HOURLY REGIONAL WEATHER ROUNDUP
NATIONAL WEATHER SERVICE PHOENIX AZ
1200 PM MST WED AUG 16 2017

NOTE: FAIR INDICATES FEW OR NO CLOUDS BELOW 12,000 FEET WITH NO
SIGNIFICANT WEATHER AND/OR OBSTRUCTIONS TO VISIBILITY.

AZZ001>003-036-162000-
NORTHWEST ARIZONA

CITY           SKY/WX    TMP DP  RH WIND       PRES   REMARKS
KINGMAN        SUNNY     87  39  18 SW10G17   30.02F
$$

AZZ004>008-015-016-018-162000-
NORTH CENTRAL ARIZONA

CITY           SKY/WX    TMP DP  RH WIND       PRES   REMARKS
GRAND CANYON   MOSUNNY   75  26  16 S8        30.25F
WILLIAMS       PTSUNNY   72  30  21 SW9G16    30.26F
PRESCOTT       SUNNY     80  35  19 SE15G23   30.15F
FLAGSTAFF      PTSUNNY   69  32  25 SW7       30.29F
PAYSON           N/A     81  37  21 S8G15     30.19F
PAGE           SUNNY     86  30  13 E5        30.07F
$$

AZZ009>014-017-162000-
NORTHEAST ARIZONA

CITY           SKY/WX    TMP DP  RH WIND       PRES   REMARKS
WINSLOW        SUNNY     85  30  13 SW9G20    30.14F
SAINT JOHNS    SUNNY     81  29  15 W9G23     30.19F
WINDOW ROCK    SUNNY     77  28  16 W10G16    30.25F
SHOW LOW       SUNNY     73  32  21 SW14      30.27F
$$

AZZ540-542>544-546-548-162000-
GREATER PHOENIX AREA

CITY           SKY/WX    TMP DP  RH WIND       PRES   REMARKS
PHOENIX        MOSUNNY   97  45  16 S12G21    29.89F
BUCKEYE        SUNNY     93  46  20 SE6       29.90S
GLENDALE       SUNNY     95  45  17 SE10G16   29.90F
LUKE AFB       SUNNY     96  46  18 E9        29.88F
DEER VALLEY    SUNNY     95  44  17 S14G23    29.90F
SCOTTSDALE     SUNNY     95  45  17 S12       29.93F
MESA-FALCON    SUNNY     97  48  19 SE12      29.92F
MESA-GATEWAY   SUNNY     93  48  21 S14G21    29.93F
CHANDLER       SUNNY     95  45  17 SE14      29.91F
$$

AZZ539-553-162000-
SOUTHWEST MARICOPA COUNTY AND PINAL COUNTY

CITY           SKY/WX    TMP DP  RH WIND       PRES   REMARKS
CASA GRANDE    SUNNY     95  47  19 VRB6      29.92F
GILA BEND      FAIR      96  46  17 E3        29.85F
$$

AZZ503-504-507>509-162000-
SOUTHEAST ARIZONA

CITY           SKY/WX    TMP DP  RH WIND       PRES   REMARKS
TUCSON         SUNNY     91  48  22 S7G18     30.02F
DAVIS-MONTHAN  SUNNY     93  48  21 S10G17    30.01F
RYAN FIELD     SUNNY     93  48  21 SW7G17    30.01F
NOGALES        SUNNY     87  52  29 VRB6      30.12F
SIERRA VISTA   SUNNY     85  41  21 W10       30.17F
DOUGLAS        SUNNY     83  45  26 S5        30.14F
SAFFORD        SUNNY     87  44  22 W3        30.04F
$$

AZZ532-162000-
SOUTHWEST ARIZONA

CITY           SKY/WX    TMP DP  RH WIND       PRES   REMARKS
YUMA           NOT AVBL
$$

CAZ041-043-047-048-061-525>527-560>570-162000-
SOUTHERN CALIFORNIA

CITY           SKY/WX    TMP DP  RH WIND       PRES   REMARKS
DOWNTOWN L.A.  MOSUNNY   78  56  46 VRB6      29.97F
L.A. AIRPORT   MOSUNNY   72  62  71 W12       29.99S
SAN DIEGO      MOSUNNY   74  57  55 NW9       30.00F
BURBANK        SUNNY     74  54  49 SE6       29.98F
ONTARIO        SUNNY     74  54  49 SW6       29.99F
RIVERSIDE      SUNNY     76  55  48 VRB5      29.98F
PALM SPRINGS   SUNNY     94  43  17 E3        29.86F
EL CENTRO NAS  SUNNY     97  21   6 N3        29.83F
IMPERIAL       SUNNY     95  31  10 VRB7      29.81F
BLYTHE         SUNNY     95  27   9 SE9       29.84F
NEEDLES        SUNNY     97  29   9 SE9       29.86F
$$

NVZ020-UTZ003-162000-
SOUTHERN NEVADA-UTAH

CITY           SKY/WX    TMP DP  RH WIND       PRES   REMARKS
LAS VEGAS      MOSUNNY   93  38  14 VRB3      29.93F
SALT LAKE CITY PTSUNNY   82  37  20 VRB5      30.06F
$$

NMZ009-TXZ055-162000-
NEW MEXICO-WEST TEXAS

CITY           SKY/WX    TMP DP  RH WIND       PRES   REMARKS
ALBUQUERQUE    MOSUNNY   82  31  15 VRB5      30.16F
EL PASO        MOSUNNY   90  50  25 VRB3      30.07F
$$


........................KEY........................
SKY/WX - SKY CONDITION/WEATHER
TMP    - TEMPERATURE IN FAHRENHEIT
DP     - DEW POINT IN FAHRENHEIT
RH     - RELATIVE HUMIDITY IN PERCENT
WIND   - DIRECTION AND SPEED IN MILES PER HOUR (MPH)
VRB    - VARIABLE WIND DIRECTION
PRES   - MEAN SEA LEVEL PRESSURE IN INCHES OF MERCURY
         F - FALLING PRESSURE   R - RISING PRESSURE
         S - STEADY PRESSURE
VSB    - VISIBILITY IN MILES
HX     - HEAT INDEX IN FAHRENHEIT
WCI    - WIND CHILL INDEX IN FAHRENHEIT
TC     - TEMPERATURE IN CELSIUS WHICH IS ALSO KNOWN AS
         TEMPERATURE IN CENTIGRADE
AFB    - AIR FORCE BASE
         LUKE AFB IS LUKE AIR FORCE BASE
         DAVIS-MONTHAN IS DAVIS-MONTHAN AIR FORCE BASE
NAS    - NAVAL AIR STATION
         EL CENTRO NAS IS EL CENTRO NAVAL AIR STATION
N/A    - NOT AVAILABLE





USA.gov is the U.S. government's official web portal to all federal, state and local government web resources and services.